Weather Roundup
Issued by NWS Chicago, IL

Home | Current Version | Previous Version | Text Only | Print | Product List | Glossary Off
Versions: 1 2 3 4 5 6 7 8 9 10 11 12 13 14 15 16 17 18 19 20 21 22 23 24 25 26 27 28 29 30 31 32 33 34 35 36 37 38 39 40 41 42 43 44 45 46 47 48 49 50

000
NZUS59 KLOT 192008
HRRLOT

CHICAGO AREA WEATHER ROUNDUP
NATIONAL WEATHER SERVICE CHICAGO/ROMEOVILLE IL
300 PM CDT THU APR 19 2018

NOTE: "FAIR" INDICATES FEW OR NO CLOUDS BELOW 12,000 FEET WITH NO
SIGNIFICANT WEATHER AND/OR OBSTRUCTIONS TO VISIBILITY.

* THESE STATIONS ARE NOT UNDER NWS QUALITY CONTROL. THEY ALSO MAY NOT
  REPORT WEATHER SUCH AS PRECIPITATION OR FOG.

ILZ005-006-012>014-019>023-192100-
NORTHEAST ILLINOIS

CITY           SKY/WX    TMP DP  RH WIND       PRES   REMARKS
OHARE            N/A     53  26  35 N13       30.36R
MIDWAY           N/A     52  26  36 NE14      30.37R
AURORA           N/A     51  29  42 N14       30.39R
LANSING*         N/A     47  28  48 N14G20    30.38S
JOLIET*          N/A     53  29  39 NW10      30.38R
WAUKEGAN         N/A     48  24  39 VRB3      30.37R
DUPAGE AIRPORT   N/A     53  26  35 NW14      30.37R
WHEELING         N/A     51  26  37 N8        30.39R
KANKAKEE*        N/A     53  28  37 N12       30.37S
MORRIS*          N/A     52  33  47 NW9       30.38S
LEWIS AIRPORT*   N/A     53  28  39 N10       30.37S
NORTHERLY ISL    N/A     45  25  45 NW14        N/A
$$

WIZ051-052-058>065-066-070>072-192100-
SOUTHEAST WISCONSIN

CITY           SKY/WX    TMP DP  RH WIND       PRES   REMARKS
MILWAUKEE        N/A     48  22  35 NW10      30.38R
KENOSHA*         N/A     47  29  49 NW10      30.38R
RACINE*          N/A     48  24  39 NW7       30.39R
BURLINGTON       N/A     44  25  48 W8        30.39R
WAUKESHA       SUNNY     41  23  48 NW9       30.39R
WEST BEND        N/A     45  19  36 NW8       30.38R
$$

INZ001>003-010>013-019-020-192100-
NORTHWEST INDIANA

CITY           SKY/WX    TMP DP  RH WIND       PRES   REMARKS
GARY*          MOSUNNY  N/A N/A N/A N14       30.40R
MICHIGAN CITY* NOT AVBL
RENSSELAER*    NOT AVBL
VALPARAISO       N/A     48  28  46 NW14G22   30.36R
$$

LMZ740>746-192100-
SOUTHERN LAKE MICHIGAN

STATION/POSITION TIME  SKY/WX   TEMP WIND        PRES    VSBY
                                AIR  DIR/SP/G
                 (UTC)          (F)  (DEG/KT/KT) (MB)    (MI)
HARRISON CRIB    1940            40  360/ 14/ 16   N/A
BURNHAM HARBOR   2000            44   10/ 13/ 17   N/A
CALUMET HARBOR   1948            41  330/ 13/ 16 1028.4R
BURNS HARBOR     1940            38  340/ 11/ 14 1029.1R
MICHIGAN CITY    1940            38  290/ 12/ 14   N/A
$$

ABBREVIATIONS USED IN REMARKS
   TC - TEMPERATURE IN CELSIUS
  WCI - WIND CHILL INDEX
   HX - HEAT INDEX
  VSB - VISIBILITY
$$



USA.gov is the U.S. government's official web portal to all federal, state and local government web resources and services.